Location: Seattle
(47.6064°N, 122.3308°W)
Time: 01:52:46
(UTC-07:00)

SEEDS - Pass Details

Date: 05 April 2023
Orbit: 568 x 587 km, 97.7° (Epoch: 28 May)

Event Time Altitude Azimuth Distance (km) Brightness Sun altitude
Rises 04:15:43 0° 25° (NNE) 2,838 ? -22.9°
Reaches altitude 10° 04:18:19 10° 42° (NE) 1,930 ? -22.5°
Maximum altitude 04:21:34 22° 93° (E) 1,325 ? -22.1°
Drops below altitude 10° 04:24:47 10° 144° (SE) 1,913 ? -21.7°
Enters shadow 04:26:05 - 153° (SSE) 2,348 ? -21.5°
